Regional Weather Roundup
Issued by NWS

Home | Current Version | Previous Version | Graphics & Text | Print | Product List | Glossary On
Versions: 1 2 3 4 5 6 7 8 9 10 11 12 13 14 15 16 17 18 19 20 21 22 23 24 25 26 27 28 29 30 31 32 33 34 35 36 37 38 39 40 41 42 43 44 45 46 47 48 49 50
000
ASUS43 KLOT 301706
RWRIL

ILLINOIS REGIONAL WEATHER ROUNDUP
NATIONAL WEATHER SERVICE CHICAGO/ROMEOVILLE IL
1200 PM CDT THU OCT 30 2014

NOTE: "FAIR" INDICATES FEW OR NO CLOUDS BELOW 12,000 FEET WITH NO
SIGNIFICANT WEATHER AND/OR OBSTRUCTIONS TO VISIBILITY.

* THESE STATIONS ARE NOT UNDER NWS QUALITY CONTROL. THEY ALSO MAY NOT
  REPORT WEATHER SUCH AS PRECIPITATION OR FOG.

ILZ001-002-007-009-015-016-024-301800-
NORTHWEST ILLINOIS

CITY           SKY/WX    TMP DP  RH WIND       PRES   REMARKS
MOLINE         CLOUDY    47  36  65 SE5       30.10F
STERLING*      PTSUNNY   48  36  61 W3        30.12S
SAVANNA*       PTSUNNY   47  37  67 S6        30.10F
$$

ILZ003-004-008-010-011-017-018-301800-
NORTH CENTRAL ILLINOIS

CITY           SKY/WX    TMP DP  RH WIND       PRES   REMARKS
ROCKFORD       CLOUDY    47  34  60 SW9       30.12F
FREEPORT*      PTSUNNY   47  35  63 W8        30.12R
ROCHELLE*      CLOUDY    47  36  63 W10       30.11F
DE KALB*       CLOUDY    46  34  63 SW9       30.11F
PERU*          CLOUDY    47  37  66 SW7       30.13S
$$

ILZ005-006-012>014-019>023-301800-
NORTHEAST ILLINOIS

CITY           SKY/WX    TMP DP  RH WIND       PRES   REMARKS
CHICAGO-OHARE  CLOUDY    49  34  56 SW9       30.11F
CHICAGO-MIDWAY PTSUNNY   51  35  54 S9        30.12F
AURORA         PTSUNNY   49  36  61 SW12      30.12F
LANSING*       CLOUDY    50  37  59 S12       30.13F
JOLIET*        MOSUNNY   49  36  60 SW8       30.13F
WAUKEGAN       PTSUNNY   47  34  60 SW10      30.10F
DUPAGE AIRPORT PTSUNNY   49  36  61 SW13      30.11F
WHEELING       PTSUNNY   50  34  54 S7        30.12F
MORRIS*        PTSUNNY   52  37  58 S7        30.12F
ROMEOVILLE*    MOSUNNY   49  34  56 SW8       30.12F
NORTHERLY ISL    N/A     49  32  52 S7          N/A
$$

LMZ740>746-301800-
SOUTHERN LAKE MICHIGAN

STATION/POSITION SKY/WX   TEMP    WIND        PRES    VSBY  WAVE
                          AIR SEA DIR/SP/G                  HT/PER
                          (F)     (DEG/KT/KT) (MB)    (MI)  (FT/S)
SOUTHERN BUOY              47 53  220/ 12/ 14 1019.7F         2/ 3
WAUKEGAN HARBOR            47     240/ 10/ 13   N/A
HARRISON CRIB              46     200/ 11/ 15   N/A
BURNHAM HARBOR             49     190/  8/ 11   N/A
CALUMET HARBOR             48     200/  7/ 11 1019.0F
MICHIGAN CITY              47     210/ 10/ 12   N/A
$$

ILZ025>027-034>036-040-047-049-050-058-095>099-301800-
WEST-CENTRAL ILLINOIS

CITY           SKY/WX    TMP DP  RH WIND       PRES   REMARKS
QUINCY         LGT RAIN  47  41  80 S17       30.03F
GALESBURG*     CLOUDY    43  38  82 E3        30.09F
MACOMB*        CLOUDY    46  39  74 S8        30.11R
JACKSONVILLE*  CLOUDY    52  40  61 S7        30.10F
PITTSFIELD*    RAIN      50  41  71 S6        30.10S
$$

ILZ028>032-037-038-041>044-048-051>054-059>061-301800-
CENTRAL ILLINOIS

CITY           SKY/WX    TMP DP  RH WIND       PRES   REMARKS
PONTIAC        CLOUDY    50  37  62 SW9       30.13F
BLOOMINGTON    PTSUNNY   49  39  68 S10       30.12F
DECATUR        PTSUNNY   51  38  60 S7        30.13F
PEORIA         CLOUDY    49  38  65 S7        30.12S
LACON*         CLOUDY    46  35  66 SW3       30.11F
LINCOLN*       CLOUDY    52  38  60 S9        30.11F
SPRINGFIELD    CLOUDY    53  40  61 S12       30.12F
TAYLORVILLE    PTSUNNY   52  37  58 S13       30.12F
$$

ILZ033-039-045-046-055>057-062-063-301800-
EAST-CENTRAL ILLINOIS

CITY           SKY/WX    TMP DP  RH WIND       PRES   REMARKS
CHAMPAIGN      MOSUNNY   52  34  50 S9        30.13F
DANVILLE*      MOSUNNY   49  33  54 SW8       30.12F
RANTOUL*       MOSUNNY   52  35  52 SE8       30.13F
MATTOON        MOSUNNY   51  36  56 SE10      30.13F
PARIS*         MOSUNNY   51  36  55 S7        30.15F
$$

ILZ079-100>102-301800-
SOUTHWEST ILLINOIS

CITY           SKY/WX    TMP DP  RH WIND       PRES   REMARKS
BELLEVILLE     CLOUDY    51  42  72 S6        30.12F
CAHOKIA*       PTSUNNY   55  43  63 SE9       30.11F
SPARTA*        CLOUDY    55  39  56 S7        30.14S
$$

ILZ064>066-069>071-074>076-080>082-084>086-088>090-092>094-301800-
SOUTH-CENTRAL ILLINOIS

CITY           SKY/WX    TMP DP  RH WIND       PRES   REMARKS
CARBONDALE     SUNNY     58  38  47 S7        30.14F
CAIRO*         SUNNY     60  40  47 CALM      30.15F
EFFINGHAM*     MOSUNNY   53  35  51 SE6       30.14F
MARION         SUNNY     57  39  51 S12       30.15F
MT. VERNON     MOSUNNY   55  39  54 S6        30.15F
CENTRALIA*     MOSUNNY   55  37  51 S7        30.13F
SALEM*         PTSUNNY   56  40  54 S6        30.14F
METROPOLIS*    SUNNY     57  40  53 CALM      30.14F
$$

ILZ067-068-072-073-078-083-087-091-301800-
SOUTHEAST ILLINOIS

CITY           SKY/WX    TMP DP  RH WIND       PRES   REMARKS
LAWRENCEVILLE  MOSUNNY   52  30  43 VRB6      30.16F
FLORA*         MOSUNNY   53  37  55 SE6       30.15F
FAIRFIELD*     MOSUNNY   54  37  52 SE5       30.14F
HARRISBURG*    SUNNY     55  39  54 SE3       30.16F
ROBINSON*      MOSUNNY   54  36  51 CALM      30.17F
CARMI*         SUNNY     56  41  55 S6        30.15F
$$

ABBREVIATIONS USED IN REMARKS
   TC - TEMPERATURE IN CELSIUS
  WCI - WIND CHILL INDEX
   HX - HEAT INDEX
  VSB - VISIBILITY
$$




USA.gov is the U.S. government's official web portal to all federal, state and local government web resources and services.